EW4496 Weather Reports


time (UTC)temp
F
wind
direction
speed
knots
gust
knots
rain 1hr
in
rain 24hr
in
rain mn
in
humidity
%
barometer
mb
20240614124553 55 91 0.0 3.5 0.00 0.00 0.00 76 1013.9
20240614123126 55 68 0.0 1.7 0.00 0.00 0.00 78 1013.6
20240614121609 55 68 0.0 1.7 0.00 0.00 0.00 78 1013.6
20240614120110 55 77 0.9 2.6 0.00 0.00 0.00 77 1013.3
20240614114614 55 79 0.9 2.6 0.00 0.00 0.00 77 1013.2
20240614113108 55 84 0.0 1.7 0.00 0.00 0.00 77 1013.1
20240614111606 55 69 0.0 1.7 0.00 0.00 0.00 77 1013.1
20240614110106 55 89 0.0 2.6 0.00 0.00 0.00 77 1013.1
20240614104608 54 98 0.0 0.9 0.00 0.00 0.00 79 1013.1
20240614103113 55 205 0.0 0.9 0.00 0.00 0.00 78 1013.0
20240614101606 55 238 0.0 0.9 0.00 0.00 0.00 78 1013.1
20240614100136 55 299 0.0 1.7 0.00 0.00 0.00 79 1013.0
20240614094621 54 70 0.0 0.9 0.00 0.00 0.00 78 1013.2
20240614093107 55 68 0.0 0.0 0.00 0.00 0.00 78 1013.1
20240614091609 55 68 0.0 0.0 0.00 0.00 0.00 77 1013.2
20240614090107 56 68 0.0 4.3 0.00 0.00 0.00 76 1013.0
20240614084505 56 83 0.9 2.6 0.00 0.00 0.00 76 1013.1
20240614083025 56 67 0.0 1.7 0.00 0.00 0.00 76 1013.3
20240614081528 56 100 0.0 0.9 0.00 0.00 0.00 75 1013.4
20240614080026 57 107 0.0 2.6 0.00 0.00 0.00 74 1013.5
20240614074525 57 77 0.0 1.7 0.00 0.00 0.00 74 1013.6
20240614073026 57 72 0.0 0.9 0.00 0.00 0.00 74 1013.5
20240614071526 58 105 0.0 3.5 0.00 0.00 0.00 73 1013.6
20240614070033 58 82 0.0 1.7 0.00 0.00 0.00 73 1013.7
20240614064540 58 67 0.9 2.6 0.00 0.00 0.00 72 1013.6
20240614063046 59 101 0.0 1.7 0.00 0.00 0.00 71 1013.6
20240614061540 59 122 0.0 0.9 0.00 0.00 0.00 70 1013.6
20240614060040 60 107 0.0 0.9 0.00 0.00 0.00 70 1013.5
20240614054547 61 110 0.0 0.9 0.00 0.00 0.00 68 1013.5
20240614053040 62 63 0.9 3.5 0.00 0.00 0.00 67 1013.1
20240614051542 62 282 0.0 0.0 0.00 0.00 0.00 66 1013.3
20240614050040 63 282 0.0 0.9 0.00 0.00 0.00 63 1013.3
20240614044540 65 212 0.0 0.0 0.00 0.00 0.00 63 1013.0
20240614043025 66 208 0.0 0.0 0.00 0.00 0.00 60 1012.7
20240614041541 68 259 0.0 3.5 0.00 0.00 0.00 57 1012.4
20240614040025 69 88 0.0 0.9 0.00 0.00 0.00 56 1012.1
20240614034525 71 70 0.0 0.9 0.00 0.00 0.00 53 1011.8
20240614033025 73 77 0.0 0.9 0.00 0.00 0.00 51 1011.8
20240614031524 75 209 0.0 1.7 0.00 0.00 0.00 48 1011.7
20240614030029 77 221 0.0 0.9 0.00 0.00 0.00 45 1011.7
20240614024513 80 245 0.0 1.7 0.00 0.00 0.00 44 1011.4
20240614023010 81 198 0.0 0.9 0.00 0.00 0.00 42 1011.3
20240614021510 82 184 0.0 4.3 0.00 0.00 0.00 42 1011.1
20240614020009 84 229 0.0 1.7 0.00 0.00 0.00 40 1011.1
20240614014509 85 299 0.0 5.2 0.00 0.00 0.00 39 1011.0
20240614013010 85 282 0.0 4.3 0.00 0.00 0.00 39 1010.7
20240614011512 86 156 0.9 4.3 0.00 0.00 0.00 37 1010.6
20240614010010 86 302 0.0 4.3 0.00 0.00 0.00 37 1010.5
20240614004515 86 240 0.0 2.6 0.00 0.00 0.00 36 1010.6
20240614003016 85 181 0.0 6.1 0.00 0.00 0.00 37 1010.7
20240614001516 87 198 0.0 5.2 0.00 0.00 0.00 35 1010.6
20240614000008 87 173 0.0 4.3 0.00 0.00 0.00 34 1010.5
20240613234509 87 309 0.0 5.2 0.00 0.00 0.00 34 1010.5
20240613233024 87 185 0.9 6.1 0.00 0.00 0.00 35 1010.5
20240613231525 86 84 0.0 5.2 0.00 0.00 0.00 36 1010.6
20240613230031 87 158 0.0 3.5 0.00 0.00 0.00 36 1010.7
20240613224524 86 67 0.0 7.0 0.00 0.00 0.00 36 1010.8
20240613223109 86 210 0.0 4.3 0.00 0.00 0.00 38 1010.8
20240613221620 86 223 0.0 2.6 0.00 0.00 0.00 36 1010.9
20240613220112 86 229 0.0 3.5 0.00 0.00 0.00 37 1011.0
20240613214629 85 288 0.0 5.2 0.00 0.00 0.00 37 1011.1
20240613213124 85 192 0.9 7.0 0.00 0.00 0.00 37 1011.1
20240613211517 86 98 0.0 4.3 0.00 0.00 0.00 36 1011.2
20240613210053 85 275 0.9 5.2 0.00 0.00 0.00 36 1011.1
20240613204553 84 242 0.0 3.5 0.00 0.00 0.00 37 1011.3
20240613203053 83 220 0.9 6.1 0.00 0.00 0.00 37 1011.4
20240613201558 84 114 0.0 5.2 0.00 0.00 0.00 39 1011.4
20240613200036 82 312 0.0 6.1 0.00 0.00 0.00 42 1011.5
20240613194527 82 208 1.7 6.1 0.00 0.00 0.00 39 1011.7
20240613193025 81 241 0.0 6.1 0.00 0.00 0.00 42 1011.8
20240613191523 80 244 0.0 7.0 0.00 0.00 0.00 41 1011.8
20240613190023 80 238 0.9 4.3 0.00 0.00 0.00 43 1011.7
20240613184525 79 236 0.0 4.3 0.00 0.00 0.00 43 1011.8
20240613183022 79 203 0.0 4.3 0.00 0.00 0.00 44 1011.8
20240613181638 78 255 2.6 5.2 0.00 0.00 0.00 44 1011.8
20240613180027 77 252 0.9 5.2 0.00 0.00 0.00 46 1011.6
20240613174529 76 226 0.0 3.5 0.00 0.00 0.00 48 1011.7
20240613173046 75 268 0.9 4.3 0.00 0.00 0.00 46 1011.7
20240613171528 74 217 0.9 5.2 0.00 0.00 0.00 48 1011.7
20240613170044 74 218 0.0 1.7 0.00 0.00 0.00 48 1011.7
20240613164524 73 244 0.0 4.3 0.00 0.00 0.00 52 1011.8
20240613163038 74 248 0.0 0.9 0.00 0.00 0.00 49 1011.9
20240613161557 72 234 0.0 2.6 0.00 0.00 0.00 53 1011.8
20240613160041 71 77 0.0 4.3 0.00 0.00 0.00 54 1011.7
20240613154541 70 257 0.0 0.9 0.00 0.00 0.00 57 1011.8
20240613153118 69 305 0.0 0.9 0.00 0.00 0.00 59 1011.7
20240613151552 68 103 0.0 1.7 0.00 0.00 0.00 63 1011.5
20240613150054 65 82 0.0 2.6 0.00 0.00 0.00 67 1011.5
20240613144556 64 84 0.0 2.6 0.00 0.00 0.00 70 1011.3
20240613143053 62 96 0.0 1.7 0.00 0.00 0.00 74 1011.3
20240613141502 60 125 0.0 2.6 0.00 0.00 0.00 77 1011.2
20240613140005 59 121 0.9 3.5 0.00 0.00 0.00 80 1011.0
20240613134507 57 44 0.9 3.5 0.00 0.00 0.00 83 1010.9
20240613133003 57 74 0.9 1.7 0.00 0.00 0.00 83 1010.8
20240613131512 56 94 0.9 3.5 0.00 0.00 0.00 84 1010.6
20240613130020 56 96 0.0 2.6 0.00 0.00 0.00 85 1010.5